Lake Charles Regional, LA

4:10 AM CST on December 18, 2017 (GMT -0600)
Lake Charles Regional

Weather History for KLCH - January, 2013

Change the Weather History Date:

Tuesday, January 22, 2013

  Actual Average Record
Temperature  
Mean Temperature 54 °F 52 °F  
Max Temperature 67 °F 61 °F 79 °F (1952)
Min Temperature 41 °F 42 °F 18 °F (1935)
Degree Days  
Heating Degree Days 11 13  
Month to date heating degree days 289 306  
Since 1 July heating degree days 744 880  
Cooling Degree Days 0 0  
Month to date cooling degree days 9 0  
Year to date cooling degree days 9 0  
Growing Degree Days 4 (Base 50)    
Moisture  
Dew Point 43 °F    
Average Humidity 68    
Maximum Humidity 93    
Minimum Humidity 42    
Precipitation  
Precipitation 0.00 in 0.16 in 2.62 in (1923)
Month to date precipitation 11.32 3.83  
Year to date precipitation 11.32 3.83  
Snow  
Snow 0.00 in 0.00 in 3.00 in (1935)
Month to date snowfall 0.0 0.0  
Since 1 July snowfall 0.0 T  
Snow Depth 0.00 in    
Sea Level Pressure  
Sea Level Pressure 30.32 in    
Wind  
Wind Speed 4 mph (East)    
Max Wind Speed 12 mph    
Max Gust Speed 14 mph    
Visibility 7 miles    
Events Fog    
T = Trace of Precipitation, MM = Missing Value Source: NWS Daily Summary

Daily Weather History Graph

Daily Weather History Graph

Search for Another Location

Airport or City:

Trip Planner

Search our weather history database for the weather conditions in past years. The results will help you decide how hot, cold, wet, or windy it might be!

Date:

Astronomy

Jan. 22, 2013 Rise Set
Actual Time 7:07 AM CST 5:41 PM CST
Civil Twilight 6:42 AM CST 6:07 PM CST
Nautical Twilight 6:13 AM CST 6:36 PM CST
Astronomical Twilight 5:44 AM CST 7:04 PM CST
Moon 2:07 PM CST (1/22) 3:27 AM CST (1/22)
Length of Visible Light 11h 24m
Length of Day
10h 33m
Waxing Gibbous, 83% of the Moon is Illuminated
Jan 22
Waxing Gibbous
Jan 26
Full
Feb 3
Last Quarter
Feb 10
New
Feb 17
First Quarter

Hourly Weather History & Observations

Time (CST) Temp. Windchill Dew Point Humidity Pressure Visibility Wind Dir Wind Speed Gust Speed Precip Events Conditions
12:53 AM 46.9 °F - 44.1 °F 90% 30.27 in 10.0 mi NE 4.6 mph - N/A   Clear
1:53 AM 46.0 °F 43.1 °F 41.0 °F 83% 30.26 in 10.0 mi NE 5.8 mph - N/A   Clear
2:53 AM 45.0 °F 42.6 °F 41.0 °F 86% 30.27 in 10.0 mi NE 4.6 mph - N/A   Mostly Cloudy
3:53 AM 44.1 °F 40.8 °F 39.9 °F 85% 30.27 in 10.0 mi NNE 5.8 mph - N/A   Clear
4:53 AM 43.0 °F 40.3 °F 37.9 °F 82% 30.29 in 10.0 mi NNE 4.6 mph - N/A   Clear
5:53 AM 41.0 °F 36.4 °F 37.0 °F 86% 30.30 in 10.0 mi NE 6.9 mph - N/A   Clear
6:53 AM 41.0 °F 36.4 °F 37.0 °F 86% 30.32 in 10.0 mi NE 6.9 mph - N/A   Scattered Clouds
7:53 AM 43.0 °F 38.8 °F 37.9 °F 82% 30.34 in 10.0 mi NE 6.9 mph - N/A   Clear
8:53 AM 46.0 °F 41.0 °F 39.0 °F 76% 30.36 in 10.0 mi NE 10.4 mph - N/A   Clear
9:53 AM 51.1 °F - 41.0 °F 68% 30.38 in 10.0 mi ENE 8.1 mph - N/A   Clear
10:53 AM 55.0 °F - 42.1 °F 62% 30.38 in 10.0 mi ENE 8.1 mph - N/A   Clear
11:53 AM 60.1 °F - 44.1 °F 55% 30.35 in 10.0 mi SE 4.6 mph - N/A   Clear
12:53 PM 62.1 °F - 45.0 °F 53% 30.32 in 10.0 mi Calm Calm - N/A   Clear
1:53 PM 66.0 °F - 45.0 °F 47% 30.29 in 10.0 mi WSW 3.5 mph - N/A   Clear
2:53 PM 66.0 °F - 43.0 °F 43% 30.29 in 10.0 mi SW 4.6 mph - N/A   Clear
3:53 PM 66.0 °F - 44.1 °F 45% 30.30 in 10.0 mi South 4.6 mph - N/A   Clear
4:53 PM 64.0 °F - 46.0 °F 52% 30.30 in 10.0 mi South 4.6 mph - N/A   Clear
5:53 PM 59.0 °F - 46.9 °F 64% 30.30 in 10.0 mi SSW 3.5 mph - N/A   Clear
6:53 PM 52.0 °F - 46.9 °F 83% 30.30 in 10.0 mi Calm Calm - N/A   Clear
7:53 PM 52.0 °F - 48.0 °F 86% 30.31 in 10.0 mi South 3.5 mph - N/A   Clear
8:53 PM 48.0 °F - 46.0 °F 93% 30.33 in 7.0 mi Calm Calm - N/A   Clear
9:23 PM 48.2 °F - 46.4 °F 93% 30.31 in 2.0 mi SSE 3.5 mph - N/A   Clear
9:31 PM 50.0 °F - 48.2 °F 94% 30.31 in 1.5 mi SSE 3.5 mph - N/A   Clear
9:43 PM 48.2 °F - 46.4 °F 93% 30.31 in 0.2 mi Calm Calm - N/A Fog Fog
9:53 PM 48.9 °F - 46.9 °F 93% 30.34 in 0.2 mi Calm Calm - N/A Fog Fog
10:04 PM 46.4 °F - 44.6 °F 93% 30.31 in 0.2 mi Calm Calm - N/A Fog Fog
10:27 PM 46.4 °F - 44.6 °F 93% 30.32 in 0.8 mi Calm Calm - N/A   Mist
10:34 PM 46.4 °F - 44.6 °F 93% 30.32 in 0.2 mi Calm Calm - N/A Fog Fog
10:53 PM 46.0 °F - 44.1 °F 93% 30.35 in 0.2 mi Calm Calm - N/A Fog Fog
11:12 PM 44.6 °F - 42.8 °F 93% 30.32 in 0.2 mi Calm Calm - N/A Fog Fog
11:19 PM 44.6 °F - 42.8 °F 93% 30.32 in 0.2 mi Calm Calm - N/A Fog Fog
11:50 PM 44.6 °F - 42.8 °F 93% 30.32 in 0.2 mi Calm Calm - N/A Fog Fog
11:53 PM 45.0 °F - 43.0 °F 93% 30.34 in 0.2 mi Calm Calm - N/A Fog Fog